Location: Betra
(48.4113°N, 8.6634°E)
Time: 19:34:01
(UTC+00:00)

Meteor 1-12 Rocket - Pass Details

Date: 23 May 2024
Orbit: 855 x 925 km, 81.2° (Epoch: 16 June)

Event Time Altitude Azimuth Distance (km) Brightness Sun altitude
Rises 00:01:10 0° 346° (NNW) 3,512 8.6 -20.4°
Reaches altitude 10° 00:03:37 10° 344° (NNW) 2,579 7.6 -20.3°
Maximum altitude 00:09:27 68° 263° (W) 975 4.4 -20.1°
Enters shadow 00:11:49 37° 192° (SSW) 1,380 4.8 -20.1°
